RH
16 17 19 20 19 20 31 31 53 73 99 100 100 100 99 82 79 65 68 65 68 75 81 81 90 54 31 24 23 23 26 29 32 32 35 42 50 45 38 31 30 32 28 25 25 25 25 24 22
18 19 18 17 18 21 23 25 27 52 77 76 98 99 84 96 96 75 86 70 59 69 74 74 87 96 62 31 27 25 29 30 29 34 43 36 39 39 33 29 27 26 24 30 32 36 33 30 27
19 19 18 18 19 19 19 20 20 21 31 60 92 89 75 76 69 96 80 71 64 56 56 59 72 90 100 87 39 27 33 35 33 36 33 29 26 25 24 24 23 35 43 46 41 39 41 44 43
32 27 18 22 20 22 16 18 19 20 21 22 40 99 97 94 80 82 86 76 62 74 80 71 86 94 100 100 91 57 37 38 37 33 34 36 34 37 42 41 41 43 49 56 50 48 51 54 48
42 47 32 30 27 20 18 19 18 19 19 19 20 33 62 89 82 81 82 80 86 84 86 89 88 87 92 98 97 85 76 77 60 52 63 84 100 100 100 99 91 76 73 71 68 68 69 72 67
46 51 38 41 34 33 32 21 17 15 18 18 18 15 22 30 54 81 93 84 75 84 96 95 89 93 98 97 100 100 96 91 94 91 73 76 91 94 98 98 98 93 85 79 73 78 76 79 77
41 32 39 70 40 37 30 23 21 15 15 17 19 17 11 10 16 36 70 95 87 88 92 98 88 93 99 95 100 100 100 100 99 100 100 100 93 100 100 96 84 85 79 75 66 62 62 68 68
43 34 43 55 39 43 33 25 26 23 16 16 16 14 11 9 9 13 36 79 93 94 99 97 98 88 74 89 100 100 100 100 100 100 100 100 100 98 88 80 73 76 80 58 54 54 52 55 59
31 34 35 33 41 32 38 40 46 32 25 14 16 13 10 10 10 11 14 45 84 97 90 96 94 95 90 93 96 99 100 100 100 100 100 92 84 99 95 87 80 59 50 44 45 44 45 47 49
32 31 34 28 32 44 40 48 46 36 30 23 18 19 11 12 11 12 12 17 43 71 84 99 96 95 94 98 91 100 96 98 100 99 94 96 100 100 100 100 74 54 48 48 45 39 34 37 42
30 35 34 30 34 36 29 35 45 37 31 29 21 17 16 11 14 13 14 15 17 34 84 95 100 100 100 100 99 100 100 100 100 100 100 100 100 96 80 87 77 50 55 54 46 65 62 51 56
24 24 25 33 35 36 42 36 31 41 33 37 33 19 18 16 11 18 17 17 18 19 30 75 96 100 100 100 100 100 100 100 100 100 100 100 100 100 100 100 100 100 100 95 84 70 73 63 50
32 38 40 41 28 36 50 40 44 35 34 38 36 32 19 22 20 12 17 19 19 21 22 27 68 99 100 100 100 100 100 100 100 100 100 100 100 100 100 100 100 100 100 100 100 90 68 57 46
62 42 52 66 73 32 42 51 48 42 42 52 43 35 41 21 20 21 14 19 25 26 25 25 30 69 99 100 100 100 100 100 100 100 100 100 100 100 100 100 100 100 100 100 95 84 67 51 38
56 48 54 80 96 68 46 54 74 60 49 37 40 37 40 43 28 28 23 15 18 30 32 32 31 33 52 91 100 100 100 100 100 100 100 100 100 100 100 100 100 100 100 100 97 74 58 43 35
46 47 44 92 100 95 53 64 64 69 67 44 41 50 44 55 45 31 33 26 17 23 39 47 51 46 49 60 93 100 100 100 100 100 100 100 100 100 100 100 100 100 100 96 81 64 49 41 36
56 53 67 90 100 91 48 77 41 69 64 41 37 38 44 54 41 46 35 38 29 23 48 67 70 78 58 47 66 93 97 100 100 100 100 100 100 100 100 100 100 96 90 76 63 55 56 51 48
56 78 100 59 88 60 61 66 47 83 83 51 50 48 50 61 60 45 50 39 47 38 32 67 84 93 100 100 87 81 79 88 100 100 100 100 100 100 100 99 90 87 75 75 72 71 73 68 59
64 64 50 46 51 77 84 98 61 80 69 63 54 56 54 41 38 51 54 52 46 56 45 39 74 96 100 100 100 100 100 100 100 100 100 99 100 100 100 100 84 82 69 69 81 87 89 80 71
69 78 67 63 66 80 97 98 80 82 75 70 65 62 60 49 46 46 53 66 76 52 62 48 48 76 95 100 95 100 100 100 100 100 100 100 100 100 100 100 100 97 90 94 98 98 99 98 89
67 80 97 87 71 66 79 90 86 76 67 67 72 72 59 51 53 69 52 60 78 66 54 68 61 45 89 90 100 100 94 100 100 100 100 95 95 100 100 100 100 100 100 100 100 100 100 98 72
97 100 99 77 77 75 91 66 100 76 70 68 70 73 62 52 88 89 54 64 70 87 59 56 73 73 43 67 100 100 100 100 100 100 100 100 98 94 97 78 74 72 90 94 99 100 100 100 97
72 72 79 90 88 98 100 73 100 94 98 95 86 74 81 54 95 100 81 57 75 77 76 67 59 72 79 63 47 87 100 100 100 100 100 100 100 100 100 100 100 97 97 93 100 100 100 100 100
78 94 100 100 88 84 90 83 100 100 99 84 89 86 87 63 85 100 100 76 78 73 86 83 68 58 70 83 68 52 61 82 96 100 100 100 100 100 100 100 100 100 100 95 100 100 100 100 100
100 100 100 100 100 86 72 72 99 92 78 85 86 78 91 77 84 100 100 100 83 67 79 87 86 82 63 66 78 75 62 58 62 75 86 98 98 96 93 89 85 99 100 100 100 98 100 89 88
100 100 100 100 94 75 71 78 77 77 77 88 80 95 99 73 82 100 100 100 100 84 89 98 90 87 67 65 72 79 70 59 54 55 65 76 81 94 92 91 89 100 100 100 100 100 100 94 89
100 100 100 100 99 74 74 76 76 65 92 90 89 97 91 79 82 100 100 100 100 92 79 98 99 86 90 76 75 75 77 61 58 47 51 53 72 83 81 90 88 84 89 97 99 100 100 100 96
100 100 98 82 75 73 64 57 51 69 78 98 96 98 91 92 100 79 82 99 100 100 87 100 100 96 100 81 74 73 72 74 63 58 49 44 52 57 74 76 75 88 87 76 81 93 96 92 90
90 83 80 70 61 55 52 52 51 65 83 92 87 84 96 96 100 99 90 100 100 100 100 100 100 100 95 86 77 74 66 62 67 61 53 53 44 38 47 61 70 69 69 78 90 92 92 85 72
60 69 58 52 52 47 45 41 62 62 82 88 73 82 100 100 100 98 92 100 100 100 100 100 100 100 92 86 80 71 66 63 62 58 56 47 48 48 38 46 60 65 70 73 77 82 90 82 69
Wind_Speed
10 9 4 4 13 22 27 35 45 50 48 54 57 57 58 62 60 57 58 55 50 55 51 53 54 54 53 51 49 47 46 46 45 45 44 41 39 38 38 37 36 34 33 34 33 31 31 32 31
28 22 12 13 13 11 14 14 21 37 48 52 56 60 62 55 60 63 63 61 58 60 55 55 56 55 56 56 54 51 51 51 49 48 47 45 43 43 42 41 41 40 40 38 37 35 35 35 35
32 27 21 17 18 11 12 18 23 33 43 49 53 56 62 66 68 64 66 63 62 62 62 59 59 58 57 58 57 56 56 54 52 50 49 48 47 46 45 44 43 42 40 40 41 41 39 38 38
40 41 34 39 27 26 13 14 16 23 33 42 53 57 58 63 67 68 69 68 63 64 61 63 61 60 57 57 57 58 58 57 55 55 52 52 51 50 49 49 48 46 44 40 42 42 41 39 38
41 44 38 38 35 36 32 36 21 18 27 37 51 53 63 65 65 65 68 68 68 67 67 63 62 62 63 56 55 56 56 56 56 55 52 49 46 44 45 44 45 46 44 42 41 41 40 37 39
44 41 42 43 45 44 44 46 41 25 30 33 48 57 65 67 69 67 69 70 68 68 65 67 64 61 59 62 53 52 57 56 54 54 54 50 50 50 50 49 49 49 49 47 46 40 41 39 38
45 42 44 46 48 49 44 44 42 37 41 28 32 57 67 68 71 72 69 70 70 70 71 68 68 64 62 58 56 54 51 49 46 48 49 44 47 48 49 50 49 49 49 48 47 47 43 42 37
42 41 43 46 50 51 48 46 52 54 39 40 32 46 56 61 63 70 73 72 73 71 71 69 65 68 68 62 60 60 54 52 51 51 52 50 49 48 53 57 56 55 55 55 52 48 47 46 44
40 41 44 46 46 51 52 51 57 58 51 44 35 26 41 53 65 62 70 75 75 74 73 69 68 68 67 63 63 65 62 58 54 55 57 58 57 53 48 54 60 60 58 57 58 55 50 49 53
41 42 44 47 49 49 53 54 58 61 60 57 45 38 31 48 59 67 65 69 76 77 75 72 71 70 69 68 66 62 65 61 59 64 60 57 52 47 53 53 61 60 54 54 56 52 54 56 61
40 44 49 49 51 51 58 56 58 62 65 65 58 49 28 34 55 62 67 68 69 75 77 73 70 70 69 68 68 64 65 62 59 58 59 59 61 65 60 55 55 57 58 58 60 61 64 64 64
40 44 46 47 50 54 52 58 62 61 65 66 63 59 41 28 29 58 63 67 67 67 72 76 76 73 70 68 68 67 64 64 62 57 55 58 61 65 63 63 60 60 59 65 68 67 69 69 68
43 49 47 53 53 53 54 57 64 62 68 67 63 60 51 39 29 24 50 63 65 66 68 72 75 75 73 71 69 68 66 65 63 61 58 59 61 61 60 63 68 70 70 70 70 72 72 73 73
47 50 53 55 57 55 56 56 60 63 66 64 65 55 51 41 36 28 27 44 57 60 64 68 72 74 75 73 73 71 70 69 67 69 68 69 69 70 71 72 72 74 73 73 74 74 74 76 76
47 50 51 55 59 57 57 57 56 61 67 66 63 63 50 51 40 34 27 30 43 53 57 59 63 70 72 73 73 72 73 72 72 71 71 74 75 77 77 76 76 75 75 74 75 76 76 75 76
49 49 50 57 59 58 58 57 60 62 63 66 64 59 59 50 46 41 33 28 30 39 43 49 52 56 60 67 68 72 73 73 73 73 74 72 73 73 74 74 76 77 78 77 79 76 73 72 70
56 52 50 50 58 57 57 56 61 60 60 68 62 66 60 63 47 44 34 32 28 31 39 42 43 47 51 55 60 64 68 71 74 73 73 74 73 73 76 78 79 80 78 77 74 72 68 66 62
55 52 51 51 55 61 61 60 61 60 61 65 65 63 57 54 57 40 38 33 36 31 35 42 42 42 46 49 52 57 62 68 71 73 74 75 75 78 78 79 78 78 75 72 70 68 65 61 59
58 55 55 56 55 59 60 63 60 60 65 65 67 63 59 64 61 45 39 37 37 38 32 39 45 47 48 50 52 52 56 60 63 66 69 72 74 73 74 74 74 73 72 70 68 66 62 59 58
63 62 62 62 62 61 61 61 60 65 64 63 64 65 61 65 63 47 42 42 42 38 39 33 43 47 51 55 56 58 59 60 62 64 68 70 70 71 71 70 67 65 64 63 64 64 65 64 62
68 69 68 70 70 72 66 65 66 67 68 67 66 69 68 66 59 53 44 44 42 41 38 40 36 47 55 55 57 61 63 65 65 64 66 66 67 66 65 65 64 65 66 66 66 66 67 68 65
72 73 77 76 73 70 70 68 70 71 74 72 74 73 72 64 56 57 45 45 44 43 43 40 40 37 48 59 63 65 68 67 68 67 66 66 68 68 68 69 67 64 66 66 65 64 66 69 70
77 79 80 75 73 70 74 74 67 75 73 77 73 74 63 61 55 58 52 46 48 45 43 45 44 42 40 47 61 68 70 72 73 73 73 74 72 71 70 69 69 66 66 66 65 64 63 68 70
84 85 84 81 76 75 75 80 74 77 84 83 77 75 62 64 53 59 55 51 51 48 46 46 47 46 44 42 49 60 72 77 78 76 78 77 75 75 74 71 70 71 71 68 68 66 68 68 67
87 89 89 83 82 84 83 85 83 83 85 83 83 77 65 64 55 58 57 55 52 53 50 50 49 52 50 48 47 52 61 69 79 83 84 82 81 80 80 75 75 73 72 72 70 68 68 69 69
87 89 90 87 86 84 85 88 88 88 88 80 80 73 67 66 54 54 58 54 54 55 54 54 53 54 55 54 51 50 55 63 70 76 82 86 88 84 81 79 77 74 73 72 69 70 71 72 73
91 93 94 93 93 94 93 94 91 91 81 80 78 70 72 61 48 53 58 55 56 56 56 58 57 57 58 59 58 55 53 59 64 68 75 81 85 85 85 84 81 78 77 75 71 71 71 75 78
100 96 97 99 97 97 97 98 97 94 83 78 72 71 64 55 52 51 52 55 56 58 59 60 60 62 60 60 62 60 59 58 62 65 69 74 82 85 85 85 85 83 81 79 78 77 78 79 81
105 105 106 103 102 103 101 101 102 95 82 74 73 68 55 54 55 59 59 59 60 59 61 63 63 66 63 62 61 61 60 61 61 63 64 68 72 79 85 87 86 83 81 79 78 79 78 80 82
108 107 109 108 108 108 109 105 98 94 84 74 70 60 53 57 60 62 63 61 62 61 63 66 66 67 64 59 58 59 60 60 63 64 64 64 64 69 73 82 85 85 82 80 78 79 79 80 80
Wind_Direction
7 4 312 270 272 260 267 265 255 256 252 248 248 248 249 254 255 252 249 246 243 247 246 245 245 244 243 244 247 249 249 250 253 257 261 262 261 261 260 261 263 265 266 272 274 274 274 273 267
31 27 8 340 311 283 276 272 273 262 259 258 253 251 250 250 248 249 248 247 244 246 246 247 247 247 246 244 244 246 249 251 253 256 259 262 263 263 263 262 261 263 266 268 270 270 272 274 274
23 17 24 15 24 337 290 293 273 258 252 252 255 256 253 253 249 246 248 248 247 249 247 248 247 247 249 247 245 245 247 250 251 253 258 261 261 263 263 264 264 264 266 267 268 271 274 273 272
19 14 10 11 7 7 354 351 317 276 264 253 248 249 249 249 249 246 245 246 246 246 248 247 249 247 248 250 249 247 247 250 252 254 258 260 261 264 265 266 267 267 267 268 269 269 272 271 270
25 22 13 11 358 3 351 350 340 298 276 269 254 243 247 242 245 246 245 243 242 242 246 246 247 248 247 246 249 251 251 251 252 254 257 260 260 260 260 263 265 267 267 266 267 271 271 268 267
12 15 15 13 5 2 357 349 346 350 322 281 262 254 246 242 239 240 242 243 241 241 240 244 246 247 248 247 249 252 254 255 255 255 257 257 260 263 263 265 265 265 266 267 269 270 271 270 266
7 12 13 9 13 8 356 348 350 343 343 306 291 259 255 252 243 237 237 240 241 239 240 242 245 247 247 246 246 249 251 254 253 254 252 253 254 257 260 260 263 265 267 268 268 270 271 267 268
9 12 8 11 9 6 3 357 352 345 349 349 290 268 264 259 252 244 236 235 238 239 240 241 242 246 247 248 246 245 246 248 249 250 248 251 252 258 261 261 259 260 264 264 268 267 267 266 262
8 5 6 6 3 9 3 1 357 357 347 353 346 286 262 255 248 244 238 235 235 237 239 241 240 242 243 245 246 246 246 246 250 251 251 251 253 257 261 261 259 259 259 260 264 263 265 265 264
355 359 358 2 3 0 1 1 1 1 353 344 359 5 256 245 243 241 239 237 235 237 238 238 240 242 242 242 243 246 246 246 248 251 254 252 250 245 252 258 261 261 262 263 262 264 267 267 270
354 352 351 355 354 356 2 2 358 356 358 351 352 7 1 261 239 239 237 236 236 235 237 238 240 240 241 241 244 246 247 245 246 252 255 253 254 254 255 252 258 264 265 265 268 272 273 275 276
342 347 349 346 355 359 357 3 3 358 356 1 348 351 6 356 271 242 238 237 235 235 236 238 239 240 241 241 243 244 246 248 244 245 249 251 249 255 255 254 256 263 262 266 268 272 273 274 276
346 345 348 350 345 349 350 355 356 358 358 353 354 349 355 1 348 282 249 243 238 237 239 237 237 238 241 242 243 245 245 245 246 244 240 244 245 242 248 252 257 261 264 268 270 272 274 278 279
331 336 339 340 339 342 344 346 350 355 355 352 353 353 349 355 355 338 286 249 241 240 242 241 240 239 240 242 243 244 244 244 245 242 241 242 245 248 252 255 257 260 263 267 270 274 276 279 278
329 334 336 337 340 338 341 342 342 346 348 354 353 349 348 345 347 339 328 283 248 243 244 243 241 242 241 242 244 245 245 245 246 247 246 244 244 247 250 253 257 259 264 267 270 272 275 275 279
326 324 332 330 332 334 334 336 342 341 342 347 352 346 348 349 343 338 330 323 283 252 245 245 244 242 242 243 245 247 246 247 248 249 249 250 250 250 252 253 256 260 263 266 269 270 271 273 275
326 321 323 333 331 328 332 333 333 338 339 339 341 346 344 340 342 338 328 322 307 279 252 247 243 243 245 244 244 245 247 248 248 248 249 250 251 251 252 254 258 261 263 265 266 266 266 268 269
323 323 325 323 324 327 328 326 331 332 335 334 338 342 339 337 339 335 333 321 314 298 271 247 245 243 240 242 243 244 246 246 246 246 246 248 250 252 256 257 258 260 262 263 263 263 262 263 262
319 317 315 320 322 323 325 320 327 327 329 329 330 334 335 335 339 328 333 325 318 312 284 261 245 241 242 243 243 245 245 245 247 248 249 250 251 251 252 254 258 260 260 259 260 260 261 259 259
314 317 316 315 319 321 321 320 322 323 327 328 329 330 332 332 326 324 320 321 324 313 308 280 258 246 242 246 244 239 239 240 241 243 248 249 248 249 251 254 257 258 259 258 257 258 259 257 258
313 313 312 314 317 317 315 319 319 319 321 325 324 326 326 329 319 321 313 312 314 316 303 305 283 258 248 245 243 247 248 246 244 244 246 247 248 247 250 252 253 254 253 255 256 257 257 257 257
310 309 312 313 315 316 313 318 314 317 317 319 319 321 321 324 310 312 309 306 308 306 307 299 298 284 263 248 245 245 247 248 248 247 246 248 252 253 253 253 254 255 256 256 257 257 256 256 258
304 308 310 312 312 312 310 312 311 311 314 315 316 318 317 319 305 304 305 302 301 302 301 301 289 292 284 269 253 247 247 248 248 249 247 251 251 251 252 253 253 254 256 257 256 258 258 256 256
302 305 305 306 308 311 311 312 311 311 312 313 313 313 311 313 301 298 299 298 299 297 299 299 295 283 285 280 266 258 250 247 246 248 248 247 249 251 251 250 252 255 254 256 256 257 258 259 258
301 302 301 302 302 307 307 309 309 309 311 311 311 312 310 307 297 294 295 293 293 296 295 299 295 294 282 281 275 267 259 255 251 248 246 247 250 251 251 252 253 253 255 256 255 256 257 259 260
301 302 301 301 302 303 304 305 307 308 308 308 309 308 303 303 292 290 291 290 290 293 294 293 294 293 287 282 279 272 266 260 256 253 250 249 249 250 251 252 252 251 251 252 254 256 258 261 262
300 300 299 301 301 301 303 303 305 311 309 306 305 302 301 296 285 286 287 285 289 289 293 295 292 292 289 286 282 276 271 266 261 259 255 252 249 249 249 250 250 252 252 251 253 257 259 260 262
295 298 297 298 298 300 301 302 303 307 307 303 301 299 296 289 281 282 284 283 286 285 289 292 292 292 290 288 282 276 273 270 268 265 261 257 254 252 249 249 250 250 252 253 254 255 257 259 261
296 294 295 296 297 298 302 303 303 306 304 300 299 296 288 282 277 279 284 283 283 282 284 289 290 290 288 287 284 279 275 273 272 269 266 264 262 257 254 250 250 250 251 253 253 254 257 260 263
294 294 292 296 297 300 302 302 303 302 304 300 298 289 277 276 276 277 285 284 283 280 283 285 288 289 287 285 283 278 277 276 274 272 269 267 266 263 260 255 254 253 252 252 253 255 258 262 265